Time,TemperatureF,DewpointF,PressureIn,WindDirection,WindDirectionDegrees,WindSpeedMPH,WindSpeedGustMPH,Humidity,HourlyPrecipIn,Conditions,Clouds,dailyrainin,SolarRadiationWatts/m^2,SoftwareType,DateUTC
2013-03-17 00:02:00,40.0,29.0,-100.00,NNW,348,5.0,6.0,65,0.00,,,0.00,0.000000,,2013-03-17 06:02:00,
2013-03-17 00:12:00,40.0,29.0,-100.00,NNW,348,5.0,6.0,65,0.00,,,0.00,0.000000,,2013-03-17 06:12:00,
2013-03-17 00:21:00,40.0,29.0,-100.00,NNW,348,5.0,6.0,65,0.00,,,0.00,0.000000,,2013-03-17 06:21:00,
2013-03-17 00:52:00,32.0,31.0,-100.00,East,82,0.0,20.0,97,0.00,,,0.00,0.000000,,2013-03-17 06:52:00,
2013-03-17 01:02:00,32.0,31.0,-100.00,East,82,0.0,20.0,97,0.00,,,0.00,0.000000,,2013-03-17 07:02:00,
2013-03-17 01:12:00,32.0,31.0,-100.00,East,82,0.0,20.0,97,0.00,,,0.00,0.000000,,2013-03-17 07:12:00,
2013-03-17 01:22:00,32.0,31.0,-100.00,East,82,0.0,20.0,97,0.00,,,0.00,0.000000,,2013-03-17 07:22:00,
2013-03-17 01:52:00,33.0,33.0,-100.00,East,94,0.0,9.0,100,0.00,,,0.00,0.000000,,2013-03-17 07:52:00,
2013-03-17 02:02:00,33.0,33.0,-100.00,East,94,0.0,9.0,100,0.00,,,0.00,0.000000,,2013-03-17 08:02:00,
2013-03-17 02:12:00,33.0,33.0,-100.00,East,94,0.0,9.0,100,0.00,,,0.00,0.000000,,2013-03-17 08:12:00,
2013-03-17 02:22:00,33.0,33.0,-100.00,East,94,0.0,9.0,100,0.00,,,0.00,0.000000,,2013-03-17 08:22:00,
2013-03-17 02:52:00,32.0,25.0,-100.00,NNE,23,2.0,0.0,74,0.00,,,0.00,0.000000,,2013-03-17 08:52:00,
2013-03-17 03:02:00,32.0,25.0,-100.00,NNE,23,2.0,0.0,74,0.00,,,0.00,0.000000,,2013-03-17 09:02:00,
2013-03-17 03:12:00,32.0,25.0,-100.00,NNE,23,2.0,0.0,74,0.00,,,0.00,0.000000,,2013-03-17 09:12:00,
2013-03-17 03:22:00,32.0,25.0,-100.00,NNE,23,2.0,0.0,74,0.00,,,0.00,0.000000,,2013-03-17 09:22:00,
2013-03-17 03:53:00,31.0,28.0,-100.00,SSE,157,1.0,8.0,89,0.00,,,0.00,0.000000,,2013-03-17 09:53:00,
2013-03-17 04:03:00,31.0,28.0,-100.00,SSE,157,1.0,8.0,89,0.00,,,0.00,0.000000,,2013-03-17 10:03:00,
2013-03-17 04:12:00,31.0,28.0,-100.00,SSE,157,1.0,8.0,89,0.00,,,0.00,0.000000,,2013-03-17 10:12:00,
2013-03-17 04:23:00,31.0,28.0,-100.00,SSE,157,1.0,8.0,89,0.00,,,0.00,0.000000,,2013-03-17 10:23:00,
2013-03-17 04:52:00,31.0,30.0,-100.00,NNE,17,6.0,7.0,95,0.00,,,0.00,0.000000,,2013-03-17 10:52:00,
2013-03-17 05:02:00,31.0,30.0,-100.00,NNE,17,6.0,7.0,95,0.00,,,0.00,0.000000,,2013-03-17 11:02:00,
2013-03-17 05:12:00,31.0,30.0,-100.00,NNE,17,6.0,7.0,95,0.00,,,0.00,0.000000,,2013-03-17 11:12:00,
2013-03-17 05:22:00,31.0,30.0,-100.00,NNE,17,6.0,7.0,95,0.00,,,0.00,0.000000,,2013-03-17 11:22:00,
2013-03-17 05:52:00,28.0,24.0,-100.00,WSW,248,0.0,16.0,84,0.00,,,0.00,0.000000,,2013-03-17 11:52:00,
2013-03-17 06:02:00,28.0,24.0,-100.00,WSW,248,0.0,16.0,84,0.00,,,0.00,0.000000,,2013-03-17 12:02:00,
2013-03-17 06:12:00,28.0,24.0,-100.00,WSW,248,0.0,16.0,84,0.00,,,0.00,0.000000,,2013-03-17 12:12:00,
2013-03-17 06:21:00,28.0,24.0,-100.00,WSW,248,0.0,16.0,84,0.00,,,0.00,0.000000,,2013-03-17 12:21:00,
2013-03-17 06:52:00,26.0,22.0,-100.00,WSW,256,0.0,16.0,86,0.00,,,0.00,0.000000,,2013-03-17 12:52:00,
2013-03-17 07:02:00,26.0,22.0,-100.00,WSW,256,0.0,16.0,86,0.00,,,0.00,0.000000,,2013-03-17 13:02:00,
2013-03-17 07:12:00,26.0,22.0,-100.00,WSW,256,0.0,16.0,86,0.00,,,0.00,0.000000,,2013-03-17 13:12:00,
2013-03-17 07:22:00,26.0,22.0,-100.00,WSW,256,0.0,16.0,86,0.00,,,0.00,0.000000,,2013-03-17 13:22:00,
2013-03-17 07:52:00,25.0,24.0,-100.00,NE,55,0.0,6.0,96,0.00,,,0.00,0.000000,,2013-03-17 13:52:00,
2013-03-17 08:02:00,25.0,24.0,-100.00,NE,55,0.0,6.0,96,0.00,,,0.00,0.000000,,2013-03-17 14:02:00,
2013-03-17 08:12:00,25.0,24.0,-100.00,NE,55,0.0,6.0,96,0.00,,,0.00,0.000000,,2013-03-17 14:12:00,
2013-03-17 08:22:00,25.0,24.0,-100.00,NE,55,0.0,6.0,96,0.00,,,0.00,0.000000,,2013-03-17 14:22:00,
2013-03-17 08:52:00,23.0,21.0,-100.00,NNE,31,0.0,4.0,93,0.00,,,0.00,0.000000,,2013-03-17 14:52:00,
2013-03-17 09:02:00,23.0,21.0,-100.00,NNE,31,0.0,4.0,93,0.00,,,0.00,0.000000,,2013-03-17 15:02:00,
2013-03-17 09:12:00,23.0,21.0,-100.00,NNE,31,0.0,4.0,93,0.00,,,0.00,0.000000,,2013-03-17 15:12:00,
2013-03-17 09:22:00,23.0,21.0,-100.00,NNE,31,0.0,4.0,93,0.00,,,0.00,0.000000,,2013-03-17 15:22:00,
2013-03-17 09:53:00,25.0,21.0,-100.00,South,186,4.0,6.0,84,0.00,,,0.00,27.000000,,2013-03-17 15:53:00,
2013-03-17 10:03:00,25.0,21.0,-100.00,South,186,4.0,6.0,84,0.00,,,0.00,27.000000,,2013-03-17 16:03:00,
2013-03-17 10:12:00,25.0,21.0,-100.00,South,186,4.0,6.0,84,0.00,,,0.00,27.000000,,2013-03-17 16:12:00,
2013-03-17 10:22:00,25.0,21.0,-100.00,South,186,4.0,6.0,84,0.00,,,0.00,27.000000,,2013-03-17 16:22:00,
2013-03-17 10:52:00,28.0,21.0,-100.00,NE,44,0.0,8.0,76,0.00,,,0.00,46.000000,,2013-03-17 16:52:00,
2013-03-17 11:02:00,28.0,21.0,-100.00,NE,44,0.0,8.0,76,0.00,,,0.00,46.000000,,2013-03-17 17:02:00,
2013-03-17 11:12:00,28.0,21.0,-100.00,NE,44,0.0,8.0,76,0.00,,,0.00,46.000000,,2013-03-17 17:12:00,
2013-03-17 11:22:00,28.0,21.0,-100.00,NE,44,0.0,8.0,76,0.00,,,0.00,46.000000,,2013-03-17 17:22:00,
2013-03-17 11:53:00,31.0,16.0,-100.00,South,176,0.0,7.0,53,0.00,,,0.00,112.000000,,2013-03-17 17:53:00,
2013-03-17 12:02:00,31.0,16.0,-100.00,South,176,0.0,7.0,53,0.00,,,0.00,112.000000,,2013-03-17 18:02:00,
2013-03-17 12:12:00,31.0,16.0,-100.00,South,176,0.0,7.0,53,0.00,,,0.00,112.000000,,2013-03-17 18:12:00,
2013-03-17 12:22:00,31.0,16.0,-100.00,South,176,0.0,7.0,53,0.00,,,0.00,112.000000,,2013-03-17 18:22:00,
2013-03-17 12:52:00,32.0,16.0,-100.00,North,354,2.0,7.0,51,0.00,,,0.00,185.000000,,2013-03-17 18:52:00,
2013-03-17 13:02:00,32.0,16.0,-100.00,North,354,2.0,7.0,51,0.00,,,0.00,185.000000,,2013-03-17 19:02:00,
2013-03-17 13:12:00,32.0,16.0,-100.00,North,354,2.0,7.0,51,0.00,,,0.00,185.000000,,2013-03-17 19:12:00,
2013-03-17 13:22:00,32.0,16.0,-100.00,North,354,2.0,7.0,51,0.00,,,0.00,185.000000,,2013-03-17 19:22:00,
2013-03-17 13:53:00,30.0,15.0,-100.00,NE,43,3.0,26.0,54,0.00,,,0.00,287.000000,,2013-03-17 19:53:00,
2013-03-17 14:02:00,30.0,15.0,-100.00,NE,43,3.0,26.0,54,0.00,,,0.00,287.000000,,2013-03-17 20:02:00,
2013-03-17 14:12:00,30.0,15.0,-100.00,NE,43,3.0,26.0,54,0.00,,,0.00,287.000000,,2013-03-17 20:12:00,
2013-03-17 14:22:00,30.0,15.0,-100.00,NE,43,3.0,26.0,54,0.00,,,0.00,287.000000,,2013-03-17 20:22:00,
2013-03-17 14:52:00,32.0,15.0,-100.00,NNW,344,3.0,19.0,48,0.00,,,-99.99,267.000000,,2013-03-17 20:52:00,
2013-03-17 15:02:00,32.0,15.0,-100.00,NNW,344,3.0,19.0,48,0.00,,,-99.99,267.000000,,2013-03-17 21:02:00,
2013-03-17 15:12:00,32.0,15.0,-100.00,NNW,344,3.0,19.0,48,0.00,,,-99.99,267.000000,,2013-03-17 21:12:00,
2013-03-17 15:22:00,32.0,15.0,-100.00,NNW,344,3.0,19.0,48,0.00,,,-99.99,267.000000,,2013-03-17 21:22:00,
2013-03-17 15:52:00,33.0,15.0,-100.00,North,7,8.0,16.0,48,0.06,,,0.06,613.000000,,2013-03-17 21:52:00,
2013-03-17 16:03:00,33.0,15.0,-100.00,North,7,8.0,16.0,48,0.06,,,0.06,613.000000,,2013-03-17 22:03:00,
2013-03-17 16:12:00,33.0,15.0,-100.00,North,7,8.0,16.0,48,0.06,,,0.06,613.000000,,2013-03-17 22:12:00,
2013-03-17 16:22:00,33.0,15.0,-100.00,North,7,8.0,16.0,48,0.06,,,0.06,613.000000,,2013-03-17 22:22:00,
2013-03-17 16:53:00,34.0,20.0,-100.00,North,8,8.0,20.0,55,0.02,,,0.08,644.000000,,2013-03-17 22:53:00,
2013-03-17 17:02:00,34.0,20.0,-100.00,North,8,8.0,20.0,55,0.02,,,0.08,644.000000,,2013-03-17 23:02:00,
2013-03-17 17:12:00,34.0,20.0,-100.00,North,8,8.0,20.0,55,0.02,,,0.08,644.000000,,2013-03-17 23:12:00,
2013-03-17 17:22:00,34.0,20.0,-100.00,North,8,8.0,20.0,55,0.02,,,0.08,644.000000,,2013-03-17 23:22:00,
2013-03-17 17:53:00,30.0,23.0,-100.00,SW,233,4.0,24.0,76,0.00,,,0.08,252.000000,,2013-03-17 23:53:00,
2013-03-17 18:03:00,30.0,23.0,-100.00,SW,233,4.0,24.0,76,0.00,,,0.08,252.000000,,2013-03-18 00:03:00,
2013-03-17 18:11:00,30.0,23.0,-100.00,SW,233,4.0,24.0,76,0.00,,,0.08,252.000000,,2013-03-18 00:11:00,
2013-03-17 18:21:00,30.0,23.0,-100.00,SW,233,4.0,24.0,76,0.00,,,0.08,252.000000,,2013-03-18 00:21:00,
2013-03-17 18:52:00,30.0,24.0,-100.00,WNW,299,0.0,15.0,77,0.00,,,0.08,142.000000,,2013-03-18 00:52:00,
2013-03-17 19:01:00,30.0,24.0,-100.00,WNW,299,0.0,15.0,77,0.00,,,0.08,142.000000,,2013-03-18 01:01:00,
2013-03-17 19:12:00,30.0,24.0,-100.00,WNW,299,0.0,15.0,77,0.00,,,0.08,142.000000,,2013-03-18 01:12:00,
2013-03-17 19:22:00,30.0,24.0,-100.00,WNW,299,0.0,15.0,77,0.00,,,0.08,142.000000,,2013-03-18 01:22:00,
2013-03-17 19:52:00,28.0,23.0,-100.00,East,97,0.0,13.0,82,0.00,,,0.08,65.000000,,2013-03-18 01:52:00,
2013-03-17 20:02:00,28.0,23.0,-100.00,East,97,0.0,13.0,82,0.00,,,0.08,65.000000,,2013-03-18 02:02:00,
2013-03-17 20:12:00,28.0,23.0,-100.00,East,97,0.0,13.0,82,0.00,,,0.08,65.000000,,2013-03-18 02:12:00,
2013-03-17 20:22:00,28.0,23.0,-100.00,East,97,0.0,13.0,82,0.00,,,0.08,65.000000,,2013-03-18 02:22:00,
2013-03-17 20:52:00,27.0,22.0,-100.00,WNW,289,0.0,6.0,82,0.00,,,0.08,7.000000,,2013-03-18 02:52:00,
2013-03-17 21:02:00,27.0,22.0,-100.00,WNW,289,0.0,6.0,82,0.00,,,0.08,7.000000,,2013-03-18 03:02:00,
2013-03-17 21:11:00,27.0,22.0,-100.00,WNW,289,0.0,6.0,82,0.00,,,0.08,7.000000,,2013-03-18 03:11:00,
2013-03-17 21:22:00,27.0,22.0,-100.00,WNW,289,0.0,6.0,82,0.00,,,0.08,7.000000,,2013-03-18 03:22:00,
2013-03-17 21:53:00,26.0,24.0,-100.00,NE,39,0.0,6.0,92,0.00,,,0.08,0.000000,,2013-03-18 03:53:00,
2013-03-17 22:02:00,26.0,24.0,-100.00,NE,39,0.0,6.0,92,0.00,,,0.08,0.000000,,2013-03-18 04:02:00,
2013-03-17 22:12:00,26.0,24.0,-100.00,NE,39,0.0,6.0,92,0.00,,,0.08,0.000000,,2013-03-18 04:12:00,
2013-03-17 22:22:00,26.0,24.0,-100.00,NE,39,0.0,6.0,92,0.00,,,0.08,0.000000,,2013-03-18 04:22:00,
2013-03-17 22:52:00,25.0,21.0,-100.00,NW,305,3.0,6.0,86,0.00,,,0.08,0.000000,,2013-03-18 04:52:00,
2013-03-17 23:02:00,25.0,21.0,-100.00,NW,305,3.0,6.0,86,0.00,,,0.08,0.000000,,2013-03-18 05:02:00,
2013-03-17 23:12:00,25.0,21.0,-100.00,NW,305,3.0,6.0,86,0.00,,,0.08,0.000000,,2013-03-18 05:12:00,
2013-03-17 23:22:00,25.0,21.0,-100.00,NW,305,3.0,6.0,86,0.00,,,0.08,0.000000,,2013-03-18 05:22:00,
2013-03-17 23:52:00,26.0,13.0,-100.00,NNW,327,0.0,7.0,57,0.00,,,0.08,0.000000,,2013-03-18 05:52:00,